Miscellaneous Local Product
Issued by NWS North Platte, NE

Home | Current Version | Previous Version | Text Only | Print | Product List | Glossary On
Versions: 1 2 3 4 5 6 7 8 9 10 11 12 13 14 15 16 17 18 19 20 21 22 23 24 25 26 27 28 29 30 31 32 33 34 35 36 37 38 39 40 41 42 43 44 45 46 47 48 49 50
401
AXUS43 KLBF 212010
MISLBF


WESTERN AND NORTH CENTRAL NEBRASKA HOURLY WEATHER ROUNDUP
NATIONAL WEATHER SERVICE NORTH PLATTE NE
300 PM CDT MON MAY 21 2018

NOTE: "FAIR" INDICATES FEW OR NO CLOUDS BELOW 12,000 FEET WITH NO
SIGNIFICANT WEATHER AND/OR OBSTRUCTIONS TO VISIBILITY.

NOTE: STATIONS NOT REPORTING VARIABLES SUCH AS SKY/WEATHER OR
PRESSURE ARE PROVIDED BY RAWS AND APRS NETWORKS AND ARE NOT UNDER
NATIONAL WEATHER SERVICE QUALITY CONTROL.

...OBSERVATIONS IN AND NEAR THE EASTERN PANHANDLE OF NEBRASKA...

CITY           SKY/WX    TMP DP  RH WIND       PRES   REMARKS
PINE RIDGE     MOSUNNY   73  54  51 SE10      29.94F
GORDON         FAIR      72  54  52 S10       29.96F
CHADRON        SUNNY     74  56  53 E6        29.92F
ALLIANCE       SUNNY     67  54  63 S12       29.98F
SIDNEY         SUNNY     69  53  56 SE9       30.00F
CRESCENT LAKE    N/A     65  52  63 S8          N/A
$$

...OBSERVATIONS IN NORTHERN NEBRASKA AND FAR SOUTHERN SOUTH DAKOTA...

CITY           SKY/WX    TMP DP  RH WIND       PRES   REMARKS
WINNER         FAIR      73  46  38 VRB3      29.97F
VALENTINE      MOSUNNY   75  50  41 S9G17     29.96F
AINSWORTH      PTSUNNY   73  54  52 S9        29.98F
O`NEILL        SUNNY     73  48  42 SW6       30.00F
THEDFORD       CLOUDY    72  53  52 SW12      29.99F
BROKEN BOW     CLOUDY    70  57  63 S15       30.00F
ORD            MOSUNNY   71  57  61 S12G17    29.99F
ALBION         MOSUNNY   70  56  61 S8        30.01F
VALENTINE NWR    N/A     73  50  45 S9G16       N/A
HALSEY           N/A     71  51  49 S8G16       N/A
BUTTE            N/A     70  49  46 N3G12       N/A
CHAMBERS         N/A     73  52  47 NW3         N/A
EWING            N/A     71  55  58 SW7         N/A
$$

...OBSERVATIONS IN SOUTHWEST NEBRASKA AND FAR NORTHEAST COLORADO...

CITY           SKY/WX    TMP DP  RH WIND       PRES   REMARKS
WRAY           FAIR      77  52  41 S15G21    29.96F
HOLYOKE        FAIR      75  54  46 S10       29.99F
IMPERIAL       PTSUNNY   75  56  51 S13G21    29.98F
OGALLALA       PTSUNNY   70  57  61 S12G20    29.99F
NORTH PLATTE   PTSUNNY   74  59  59 S16       29.98F
MCCOOK         MOSUNNY   77  59  53 S20G30    29.96F
LEXINGTON      PTSUNNY   71  59  65 S14G21    30.00F
STAPLETON        N/A     73  58  59 CALM        N/A
GOTHENBURG       N/A     70  53  53 S9          N/A
CALLAWAY         N/A     70  59  67 S20         N/A
$$

...OBSERVATIONS IN CENTRAL LINCOLN COUNTY AREA...

CITY           SKY/WX    TMP DP  RH WIND       PRES   REMARKS
N.P. AIRPORT   PTSUNNY   74  59  59 S16       29.98F
N.P. DOWNTOWN    N/A     75  59  57 S5          N/A
N.P. SOUTHEAST   N/A     73  57  57 S10G18      N/A
$$

...OBSERVATIONS ACROSS THE ROCKIES AND WESTERN HIGH PLAINS...

CITY           SKY/WX    TMP DP  RH WIND       PRES   REMARKS
RAPID CITY     SUNNY     71  54  54 SE15      29.92F
SCOTTSBLUFF    SUNNY     70  56  61 SE8       29.97F
CHEYENNE       PTSUNNY   69  41  36 VRB6      30.03F
DENVER         MOSUNNY   78  44  29 NE13      29.99F
BERTHOUD PASS  PTSUNNY   43  32  65 W17G35    30.41S
COPPER MTN     PTSUNNY   52  18  25 W13G20    30.38F
MONARCH PASS   CLOUDY    46  28  49 MISG      30.47F
ASPEN          PTSUNNY   68  25  19 E13G20    30.11F
STEAMBOAT      FAIR      71  30  22 W7        30.04F
LARAMIE        LGT RAIN  63  39  41 N9G26     30.06F
CASPER         MOSUNNY   72  40  31 SW5       29.96F
$$

...OBSERVATIONS ACROSS THE NORTHERN PLAINS...

CITY           SKY/WX    TMP DP  RH WIND       PRES   REMARKS
BISMARCK       MOSUNNY   73  50  44 S9        29.95F
FARGO          CLOUDY    73  41  31 SE15      29.98F
PIERRE         SUNNY     73  45  36 MISG      29.94F
SIOUX FALLS    CLOUDY    64  58  80 NW3       30.00F
$$

...OBSERVATIONS ACROSS THE CENTRAL AND SOUTHERN PLAINS...

CITY           SKY/WX    TMP DP  RH WIND       PRES   REMARKS
OMAHA          MOSUNNY   70  57  63 VRB3      30.01F
GRAND ISLAND   SUNNY     71  55  56 S12G18    30.03F
KANSAS CITY    CLOUDY    64  57  78 SW6       30.06F
WICHITA        MOSUNNY   77  62  59 VRB7      30.04F
DODGE CITY     MOSUNNY   79  55  43 S18G31    30.03F
OKLAHOMA CITY  MOSUNNY   78  59  51 E3        30.04F
DALLAS         CLOUDY    87  67  51 NE3       29.98F HX  90
AMARILLO       PTSUNNY   75  56  51 S15G24    30.10F
$$




USA.gov is the U.S. government's official web portal to all federal, state and local government web resources and services.